Preview of NWS' New Version of Forecast
This preview is not operational and should not be used for support decisions.

Regional Weather Roundup (RWR)

Issued by National Weather Service (NWS)

                            
000
ASUS44 KMEG 220210
RWRTN 
TENNESSEE HOURLY STATE WEATHER ROUNDUP
NATIONAL WEATHER SERVICE MEMPHIS TN
900 PM CDT SUN APR 21 2019

TNZ002-004-019-021-049-052-054-088>092-220300-
WEST TENNESSEE
  
CITY           SKY/WX    TMP DP  RH WIND       PRES   REMARKS
MEMPHIS INTL   FAIR      66  48  52 S6        30.09R                  
NWS MEMPHIS      N/A     61 N/A N/A MISG        N/A                   
JACKSON        FAIR      59  51  75 CALM      30.09R                  
DYERSBURG      FAIR      64  52  64 CALM      30.09R                  
SOMERVILLE     CLEAR     61  52  72 CALM      30.08R                  
COVINGTON      CLEAR     63  52  67 CALM      30.08R                  
UNION CITY     CLEAR     61  50  67 CALM      30.07R                  
BOLIVAR        CLEAR     61  48  63 CALM      30.08R                  
PARIS          CLEAR     57  48  72 CALM      30.09R                  
HUNTINGDON     CLEAR     63  48  59 CALM      30.09R                  
LEXINGTON        N/A     59  48  67 CALM      30.09R                  
SELMER         CLEAR     66  46  48 S5        30.09R                  
SAVANNAH       PTCLDY    57  55  94 CALM      30.10R                  
$$

TNZ008-025-027-028-033-062-065-066-220300-
NORTH MIDDLE TENNESSEE
  
CITY           SKY/WX    TMP DP  RH WIND       PRES   REMARKS
NASHVILLE      FAIR      62  35  36 SE5       30.14R                  
DICKSON        CLEAR     63  34  34 CALM      30.11R                  
PORTLAND       CLEAR     54  45  71 SE5       30.13S                  
CLARKSVILLE    FAIR      59  39  47 E5        30.11R                  
LEBANON        CLEAR     55  45  67 CALM      30.13R                  
SMYRNA         FAIR      56  45  66 CALM      30.15R                  
MURFREESBORO   CLEAR     57  41  54 CALM      30.13R                  
COOKEVILLE     CLEAR     50  45  81 CALM      30.16R                  
LIVINGSTON     CLEAR     57  32  38 CALM      30.16R                  
GALLATIN       CLEAR     55  46  71 CALM      30.17R                  
CROSSVILLE     FAIR      53  34  48 CALM      30.19R                  
ROCKWOOD       CLEAR     54  32  43 NW6       30.17R                  
$$

TNZ061-075-076-078-094-096-097-220300-
SOUTH MIDDLE TENNESSEE
  
CITY           SKY/WX    TMP DP  RH WIND       PRES   REMARKS
LAWRENCEBURG   CLEAR     57  50  77 CALM      30.12S                  
LEWISBURG      CLEAR     52  46  82 S3        30.13R                  
FAYETTEVILLE   CLEAR     61  43  51 CALM      30.14R                  
TULLAHOMA      CLEAR     54  43  66 CALM      30.14R                  
WINCHESTER     CLEAR     55  43  62 CALM      30.15R                  
MCMINNVILLE    CLEAR     52  45  76 CALM      30.16R                  
COLUMBIA       CLEAR     57  48  72 CALM      30.11R                  
SHELBYVILLE    CLEAR     55  45  67 E5        30.14R                  
$$

TNZ017-018-042-046-047-220300-
NORTHEAST TENNESSEE
  
CITY           SKY/WX    TMP DP  RH WIND       PRES   REMARKS
TRI CITIES     FAIR      47  42  83 CALM      30.18R                  
ELIZABETHTON   FAIR      46  45  93 CALM      30.18R                  
GREENEVILLE    CLEAR     50  43  76 CALM      30.17R                  
$$

TNZ012-013-036-069-073-074-220300-
CENTRAL EAST TENNESSEE
  
CITY           SKY/WX    TMP DP  RH WIND       PRES   REMARKS
KNOXVILLE      FAIR      56  45  66 NE6       30.14R                  
OAK RIDGE      FAIR      56  46  69 CALM      30.17R                  
DOWNTOWN KNOXV CLEAR     52  50  93 CALM      30.16R                  
GATLINBURG     CLEAR     52  46  82 CALM      30.16R                  
MORRISTOWN     PTCLDY    52  45  76 CALM      30.16R                  
JACKSBORO      CLEAR     52  39  62 CALM      30.19R                  
$$

TNZ083-085-099-220300-
SOUTHEAST TENNESSEE
  
CITY           SKY/WX    TMP DP  RH WIND       PRES   REMARKS
CHATTANOOGA    FAIR      59  40  49 CALM      30.15R                  
DAYTON         CLEAR     54  43  66 CALM      30.15R                  
$$

SKY/WX REPORTED AS FAIR MEANS FEW OR NO CLOUDS BELOW
12 THOUSAND FEET.